owner,sensor,date,latitude,longitude,vertical_datum,wind_speed,wind_to_direction,wind_speed_of_gust,qcFlag 
WAVCIS,ioos:station:WAVCIS:CSI03:3,2019-11-01T00:00:00Z,29.4412,-92.0613,10.0,4.1,-9999.0,8.8,'11111222,11111222,11111222' 
WAVCIS,ioos:station:WAVCIS:CSI03:3,2019-11-01T01:00:00Z,29.4412,-92.0613,10.0,4.1,-9999.0,7.7,'11111222,11111222,11111222' 
WAVCIS,ioos:station:WAVCIS:CSI03:3,2019-11-01T02:00:00Z,29.4412,-92.0613,10.0,7.2,-9999.0,11.3,'11111222,11111222,11111222' 
WAVCIS,ioos:station:WAVCIS:CSI03:3,2019-11-01T03:00:00Z,29.4412,-92.0613,10.0,7.7,-9999.0,11.8,'11111222,11111222,11111222' 
WAVCIS,ioos:station:WAVCIS:CSI03:3,2019-11-01T04:00:00Z,29.4412,-92.0613,10.0,9.3,-9999.0,11.8,'11111222,11111222,11111222' 
WAVCIS,ioos:station:WAVCIS:CSI03:3,2019-11-01T05:00:00Z,29.4412,-92.0613,10.0,8.8,-9999.0,12.4,'11111222,11111222,11111222' 
WAVCIS,ioos:station:WAVCIS:CSI03:3,2019-11-01T06:00:00Z,29.4412,-92.0613,10.0,8.8,-9999.0,11.8,'11111222,11111222,11111222' 
WAVCIS,ioos:station:WAVCIS:CSI03:3,2019-11-01T07:00:00Z,29.4412,-92.0613,10.0,9.8,-9999.0,12.9,'11111222,11111222,11111222' 
WAVCIS,ioos:station:WAVCIS:CSI03:3,2019-11-01T08:00:00Z,29.4412,-92.0613,10.0,9.8,-9999.0,11.8,'11111222,11111222,11111222' 
WAVCIS,ioos:station:WAVCIS:CSI03:3,2019-11-01T09:00:00Z,29.4412,-92.0613,10.0,10.8,-9999.0,12.9,'11111222,11111222,11111222' 
WAVCIS,ioos:station:WAVCIS:CSI03:3,2019-11-01T10:00:00Z,29.4412,-92.0613,10.0,9.8,-9999.0,12.4,'11111222,11111222,11111222' 
WAVCIS,ioos:station:WAVCIS:CSI03:3,2019-11-01T11:00:00Z,29.4412,-92.0613,10.0,9.3,-9999.0,11.8,'11111222,11111222,11111222' 
WAVCIS,ioos:station:WAVCIS:CSI03:3,2019-11-01T12:00:00Z,29.4412,-92.0613,10.0,10.3,-9999.0,12.4,'11111222,11111222,11111222' 
WAVCIS,ioos:station:WAVCIS:CSI03:3,2019-11-01T13:00:00Z,29.4412,-92.0613,10.0,10.3,-9999.0,12.4,'11111222,11111222,11111222' 
WAVCIS,ioos:station:WAVCIS:CSI03:3,2019-11-01T14:00:00Z,29.4412,-92.0613,10.0,9.8,-9999.0,11.3,'11111222,11111222,11111222' 
WAVCIS,ioos:station:WAVCIS:CSI03:3,2019-11-01T15:00:00Z,29.4412,-92.0613,10.0,8.8,-9999.0,10.8,'11111222,11111222,11111222' 
WAVCIS,ioos:station:WAVCIS:CSI03:3,2019-11-01T16:00:00Z,29.4412,-92.0613,10.0,7.7,-9999.0,9.3,'11111222,11111222,11111222' 
WAVCIS,ioos:station:WAVCIS:CSI03:3,2019-11-01T17:00:00Z,29.4412,-92.0613,10.0,5.1,-9999.0,6.7,'11111222,11111222,11111222' 
WAVCIS,ioos:station:WAVCIS:CSI03:3,2019-11-01T18:00:00Z,29.4412,-92.0613,10.0,4.1,-9999.0,5.1,'11111222,11111222,11111222' 
WAVCIS,ioos:station:WAVCIS:CSI03:3,2019-11-01T19:00:00Z,29.4412,-92.0613,10.0,3.1,-9999.0,4.6,'11111222,11111222,11111222' 
WAVCIS,ioos:station:WAVCIS:CSI03:3,2019-11-01T20:00:00Z,29.4412,-92.0613,10.0,1.5,-9999.0,3.1,'11111222,11111222,11111222' 
WAVCIS,ioos:station:WAVCIS:CSI03:3,2019-11-01T21:00:00Z,29.4412,-92.0613,10.0,1.5,-9999.0,2.6,'11111222,11111222,11111222' 
WAVCIS,ioos:station:WAVCIS:CSI03:3,2019-11-01T22:00:00Z,29.4412,-92.0613,10.0,0.5,-9999.0,2.1,'11111222,11111222,11111222' 
WAVCIS,ioos:station:WAVCIS:CSI03:3,2019-11-01T23:00:00Z,29.4412,-92.0613,10.0,1.0,-9999.0,2.6,'11111222,11111222,11111222' 
WAVCIS,ioos:station:WAVCIS:CSI03:3,2019-11-02T00:00:00Z,29.4412,-92.0613,10.0,1.0,-9999.0,2.6,'11111222,11111222,11111222' 
WAVCIS,ioos:station:WAVCIS:CSI03:3,2019-11-02T01:00:00Z,29.4412,-92.0613,10.0,0.5,-9999.0,1.5,'11111222,11111222,11111222' 
WAVCIS,ioos:station:WAVCIS:CSI03:3,2019-11-02T02:00:00Z,29.4412,-92.0613,10.0,2.6,-9999.0,3.6,'11111222,11111222,11111222' 
WAVCIS,ioos:station:WAVCIS:CSI03:3,2019-11-02T03:00:00Z,29.4412,-92.0613,10.0,3.1,-9999.0,4.6,'11111222,11111222,11111222' 
WAVCIS,ioos:station:WAVCIS:CSI03:3,2019-11-02T04:00:00Z,29.4412,-92.0613,10.0,4.1,-9999.0,5.1,'11111222,11111222,11111222' 
WAVCIS,ioos:station:WAVCIS:CSI03:3,2019-11-02T05:00:00Z,29.4412,-92.0613,10.0,3.1,-9999.0,4.1,'11111222,11111222,11111222' 
WAVCIS,ioos:station:WAVCIS:CSI03:3,2019-11-02T06:00:00Z,29.4412,-92.0613,10.0,4.1,-9999.0,5.1,'11111222,11111222,11111222' 
WAVCIS,ioos:station:WAVCIS:CSI03:3,2019-11-02T07:00:00Z,29.4412,-92.0613,10.0,2.1,-9999.0,4.6,'11111222,11111222,11111222' 
WAVCIS,ioos:station:WAVCIS:CSI03:3,2019-11-02T08:00:00Z,29.4412,-92.0613,10.0,3.1,-9999.0,6.7,'11111222,11111222,11111222' 
WAVCIS,ioos:station:WAVCIS:CSI03:3,2019-11-02T09:00:00Z,29.4412,-92.0613,10.0,5.1,-9999.0,7.7,'11111222,11111222,11111222' 
WAVCIS,ioos:station:WAVCIS:CSI03:3,2019-11-02T10:00:00Z,29.4412,-92.0613,10.0,5.7,-9999.0,7.7,'11111222,11111222,11111222' 
WAVCIS,ioos:station:WAVCIS:CSI03:3,2019-11-02T11:00:00Z,29.4412,-92.0613,10.0,8.8,-9999.0,10.8,'11111222,11111222,11111222' 
WAVCIS,ioos:station:WAVCIS:CSI03:3,2019-11-02T12:00:00Z,29.4412,-92.0613,10.0,4.6,-9999.0,5.7,'11111222,11111222,11111222' 
WAVCIS,ioos:station:WAVCIS:CSI03:3,2019-11-02T13:00:00Z,29.4412,-92.0613,10.0,5.7,-9999.0,6.7,'11111222,11111222,11111222' 
WAVCIS,ioos:station:WAVCIS:CSI03:3,2019-11-02T14:00:00Z,29.4412,-92.0613,10.0,5.7,-9999.0,7.2,'11111222,11111222,11111222' 
WAVCIS,ioos:station:WAVCIS:CSI03:3,2019-11-02T15:00:00Z,29.4412,-92.0613,10.0,6.2,-9999.0,8.2,'11111222,11111222,11111222' 
WAVCIS,ioos:station:WAVCIS:CSI03:3,2019-11-02T16:00:00Z,29.4412,-92.0613,10.0,6.2,-9999.0,8.2,'11111222,11111222,11111222' 
WAVCIS,ioos:station:WAVCIS:CSI03:3,2019-11-02T17:00:00Z,29.4412,-92.0613,10.0,3.6,-9999.0,7.2,'11111222,11111222,11111222' 
WAVCIS,ioos:station:WAVCIS:CSI03:3,2019-11-02T18:00:00Z,29.4412,-92.0613,10.0,4.1,-9999.0,7.7,'11111222,11111222,11111222' 
WAVCIS,ioos:station:WAVCIS:CSI03:3,2019-11-02T19:00:00Z,29.4412,-92.0613,10.0,3.6,-9999.0,6.7,'11111222,11111222,11111222' 
WAVCIS,ioos:station:WAVCIS:CSI03:3,2019-11-02T20:00:00Z,29.4412,-92.0613,10.0,5.1,-9999.0,7.2,'11111222,11111222,11111222' 
WAVCIS,ioos:station:WAVCIS:CSI03:3,2019-11-02T21:00:00Z,29.4412,-92.0613,10.0,5.1,-9999.0,6.7,'11111222,11111222,11111222' 
WAVCIS,ioos:station:WAVCIS:CSI03:3,2019-11-02T22:00:00Z,29.4412,-92.0613,10.0,4.1,-9999.0,6.7,'11111222,11111222,11111222' 
WAVCIS,ioos:station:WAVCIS:CSI03:3,2019-11-02T23:00:00Z,29.4412,-92.0613,10.0,6.2,-9999.0,7.7,'11111222,11111222,11111222' 
WAVCIS,ioos:station:WAVCIS:CSI03:3,2019-11-03T00:00:00Z,29.4412,-92.0613,10.0,4.6,-9999.0,7.7,'11111222,11111222,11111222' 
WAVCIS,ioos:station:WAVCIS:CSI03:3,2019-11-03T01:00:00Z,29.4412,-92.0613,10.0,5.1,-9999.0,6.2,'11111222,11111222,11111222' 
WAVCIS,ioos:station:WAVCIS:CSI03:3,2019-11-03T03:00:00Z,29.4412,-92.0613,10.0,5.7,-9999.0,7.2,'11111222,11111222,11111222' 
WAVCIS,ioos:station:WAVCIS:CSI03:3,2019-11-03T04:00:00Z,29.4412,-92.0613,10.0,5.7,-9999.0,7.2,'11111222,11111222,11111222' 
WAVCIS,ioos:station:WAVCIS:CSI03:3,2019-11-03T05:00:00Z,29.4412,-92.0613,10.0,6.7,-9999.0,8.2,'11111222,11111222,11111222' 
WAVCIS,ioos:station:WAVCIS:CSI03:3,2019-11-03T06:00:00Z,29.4412,-92.0613,10.0,7.2,-9999.0,9.8,'11111222,11111222,11111222' 
WAVCIS,ioos:station:WAVCIS:CSI03:3,2019-11-03T08:00:00Z,29.4412,-92.0613,10.0,9.3,-9999.0,10.8,'11111222,11111222,11111222' 
WAVCIS,ioos:station:WAVCIS:CSI03:3,2019-11-03T09:00:00Z,29.4412,-92.0613,10.0,8.8,-9999.0,10.8,'11111222,11111222,11111222' 
WAVCIS,ioos:station:WAVCIS:CSI03:3,2019-11-03T10:00:00Z,29.4412,-92.0613,10.0,9.3,-9999.0,10.8,'11111222,11111222,11111222' 
WAVCIS,ioos:station:WAVCIS:CSI03:3,2019-11-03T11:00:00Z,29.4412,-92.0613,10.0,8.8,-9999.0,10.3,'11111222,11111222,11111222' 
WAVCIS,ioos:station:WAVCIS:CSI03:3,2019-11-03T12:00:00Z,29.4412,-92.0613,10.0,8.8,-9999.0,10.3,'11111222,11111222,11111222' 
WAVCIS,ioos:station:WAVCIS:CSI03:3,2019-11-03T13:00:00Z,29.4412,-92.0613,10.0,7.7,-9999.0,8.8,'11111222,11111222,11111222' 
WAVCIS,ioos:station:WAVCIS:CSI03:3,2019-11-03T14:00:00Z,29.4412,-92.0613,10.0,7.7,-9999.0,8.8,'11111222,11111222,11111222' 
WAVCIS,ioos:station:WAVCIS:CSI03:3,2019-11-03T15:00:00Z,29.4412,-92.0613,10.0,7.2,-9999.0,7.7,'11111222,11111222,11111222' 
WAVCIS,ioos:station:WAVCIS:CSI03:3,2019-11-03T16:00:00Z,29.4412,-92.0613,10.0,6.7,-9999.0,7.7,'11111222,11111222,11111222' 
WAVCIS,ioos:station:WAVCIS:CSI03:3,2019-11-03T17:00:00Z,29.4412,-92.0613,10.0,6.7,-9999.0,8.2,'11111222,11111222,11111222' 
WAVCIS,ioos:station:WAVCIS:CSI03:3,2019-11-03T18:00:00Z,29.4412,-92.0613,10.0,5.7,-9999.0,6.7,'11111222,11111222,11111222' 
WAVCIS,ioos:station:WAVCIS:CSI03:3,2019-11-03T19:00:00Z,29.4412,-92.0613,10.0,5.1,-9999.0,6.2,'11111222,11111222,11111222' 
WAVCIS,ioos:station:WAVCIS:CSI03:3,2019-11-03T20:00:00Z,29.4412,-92.0613,10.0,4.1,-9999.0,5.1,'11111222,11111222,11111222' 
WAVCIS,ioos:station:WAVCIS:CSI03:3,2019-11-03T21:00:00Z,29.4412,-92.0613,10.0,3.6,-9999.0,4.6,'11111222,11111222,11111222' 
WAVCIS,ioos:station:WAVCIS:CSI03:3,2019-11-03T22:00:00Z,29.4412,-92.0613,10.0,3.1,-9999.0,4.1,'11111222,11111222,11111222' 
WAVCIS,ioos:station:WAVCIS:CSI03:3,2019-11-03T23:00:00Z,29.4412,-92.0613,10.0,3.1,-9999.0,3.6,'11111222,11111222,11111222' 
WAVCIS,ioos:station:WAVCIS:CSI03:3,2019-11-04T00:00:00Z,29.4412,-92.0613,10.0,3.1,-9999.0,3.6,'11111222,11111222,11111222' 
WAVCIS,ioos:station:WAVCIS:CSI03:3,2019-11-04T02:00:00Z,29.4412,-92.0613,10.0,2.6,-9999.0,3.1,'11111222,11111222,11111222' 
WAVCIS,ioos:station:WAVCIS:CSI03:3,2019-11-04T03:00:00Z,29.4412,-92.0613,10.0,3.1,-9999.0,3.6,'11111222,11111222,11111222' 
WAVCIS,ioos:station:WAVCIS:CSI03:3,2019-11-04T04:00:00Z,29.4412,-92.0613,10.0,4.6,-9999.0,5.1,'11111222,11111222,11111222' 
WAVCIS,ioos:station:WAVCIS:CSI03:3,2019-11-04T05:00:00Z,29.4412,-92.0613,10.0,5.7,-9999.0,6.2,'11111222,11111222,11111222' 
WAVCIS,ioos:station:WAVCIS:CSI03:3,2019-11-04T15:00:00Z,29.4412,-92.0613,10.0,8.2,-9999.0,9.3,'11111222,11111222,11111222' 
WAVCIS,ioos:station:WAVCIS:CSI03:3,2019-11-04T16:00:00Z,29.4412,-92.0613,10.0,7.2,-9999.0,8.2,'11111222,11111222,11111222' 
WAVCIS,ioos:station:WAVCIS:CSI03:3,2019-11-04T17:00:00Z,29.4412,-92.0613,10.0,6.7,-9999.0,7.7,'11111222,11111222,11111222' 
WAVCIS,ioos:station:WAVCIS:CSI03:3,2019-11-04T18:00:00Z,29.4412,-92.0613,10.0,6.7,-9999.0,7.2,'11111222,11111222,11111222' 
WAVCIS,ioos:station:WAVCIS:CSI03:3,2019-11-04T19:00:00Z,29.4412,-92.0613,10.0,5.7,-9999.0,6.7,'11111222,11111222,11111222' 
WAVCIS,ioos:station:WAVCIS:CSI03:3,2019-11-04T20:00:00Z,29.4412,-92.0613,10.0,5.1,-9999.0,5.7,'11111222,11111222,11111222' 
WAVCIS,ioos:station:WAVCIS:CSI03:3,2019-11-04T21:00:00Z,29.4412,-92.0613,10.0,5.1,-9999.0,5.7,'11111222,11111222,11111222' 
WAVCIS,ioos:station:WAVCIS:CSI03:3,2019-11-04T22:00:00Z,29.4412,-92.0613,10.0,5.1,-9999.0,5.7,'11111222,11111222,11111222' 
WAVCIS,ioos:station:WAVCIS:CSI03:3,2019-11-04T23:00:00Z,29.4412,-92.0613,10.0,4.6,-9999.0,5.1,'11111222,11111222,11111222' 
WAVCIS,ioos:station:WAVCIS:CSI03:3,2019-11-05T00:00:00Z,29.4412,-92.0613,10.0,6.2,-9999.0,6.7,'11111222,11111222,11111222' 
WAVCIS,ioos:station:WAVCIS:CSI03:3,2019-11-05T01:00:00Z,29.4412,-92.0613,10.0,5.1,-9999.0,5.7,'11111222,11111222,11111222' 
WAVCIS,ioos:station:WAVCIS:CSI03:3,2019-11-05T02:00:00Z,29.4412,-92.0613,10.0,4.6,-9999.0,4.6,'11111222,11111222,11111222' 
WAVCIS,ioos:station:WAVCIS:CSI03:3,2019-11-05T03:00:00Z,29.4412,-92.0613,10.0,4.6,-9999.0,5.1,'11111222,11111222,11111222' 
WAVCIS,ioos:station:WAVCIS:CSI03:3,2019-11-05T04:00:00Z,29.4412,-92.0613,10.0,4.1,-9999.0,4.6,'11111222,11111222,11111222' 
WAVCIS,ioos:station:WAVCIS:CSI03:3,2019-11-05T05:00:00Z,29.4412,-92.0613,10.0,4.1,-9999.0,4.6,'11111222,11111222,11111222' 
WAVCIS,ioos:station:WAVCIS:CSI03:3,2019-11-05T06:00:00Z,29.4412,-92.0613,10.0,4.6,-9999.0,5.1,'11111222,11111222,11111222' 
WAVCIS,ioos:station:WAVCIS:CSI03:3,2019-11-05T07:00:00Z,29.4412,-92.0613,10.0,4.6,-9999.0,5.7,'11111222,11111222,11111222' 
WAVCIS,ioos:station:WAVCIS:CSI03:3,2019-11-05T08:00:00Z,29.4412,-92.0613,10.0,4.1,-9999.0,5.1,'11111222,11111222,11111222' 
WAVCIS,ioos:station:WAVCIS:CSI03:3,2019-11-05T09:00:00Z,29.4412,-92.0613,10.0,4.1,-9999.0,4.6,'11111222,11111222,11111222' 
WAVCIS,ioos:station:WAVCIS:CSI03:3,2019-11-05T10:00:00Z,29.4412,-92.0613,10.0,3.6,-9999.0,4.1,'11111222,11111222,11111222' 
WAVCIS,ioos:station:WAVCIS:CSI03:3,2019-11-05T11:00:00Z,29.4412,-92.0613,10.0,4.1,-9999.0,4.6,'11111222,11111222,11111222' 
WAVCIS,ioos:station:WAVCIS:CSI03:3,2019-11-05T12:00:00Z,29.4412,-92.0613,10.0,4.6,-9999.0,5.1,'11111222,11111222,11111222' 
WAVCIS,ioos:station:WAVCIS:CSI03:3,2019-11-05T13:00:00Z,29.4412,-92.0613,10.0,3.6,-9999.0,4.1,'11111222,11111222,11111222' 
WAVCIS,ioos:station:WAVCIS:CSI03:3,2019-11-05T14:00:00Z,29.4412,-92.0613,10.0,4.1,-9999.0,5.1,'11111222,11111222,11111222' 
WAVCIS,ioos:station:WAVCIS:CSI03:3,2019-11-05T15:00:00Z,29.4412,-92.0613,10.0,4.1,-9999.0,4.6,'11111222,11111222,11111222' 
WAVCIS,ioos:station:WAVCIS:CSI03:3,2019-11-05T16:00:00Z,29.4412,-92.0613,10.0,4.6,-9999.0,5.1,'11111222,11111222,11111222' 
WAVCIS,ioos:station:WAVCIS:CSI03:3,2019-11-05T17:00:00Z,29.4412,-92.0613,10.0,3.1,-9999.0,4.1,'11111222,11111222,11111222' 
WAVCIS,ioos:station:WAVCIS:CSI03:3,2019-11-05T18:00:00Z,29.4412,-92.0613,10.0,3.6,-9999.0,4.1,'11111222,11111222,11111222' 
WAVCIS,ioos:station:WAVCIS:CSI03:3,2019-11-05T19:00:00Z,29.4412,-92.0613,10.0,2.1,-9999.0,2.6,'11111222,11111222,11111222' 
WAVCIS,ioos:station:WAVCIS:CSI03:3,2019-11-05T20:00:00Z,29.4412,-92.0613,10.0,0.0,-9999.0,0.5,'11111222,11111222,11111222' 
WAVCIS,ioos:station:WAVCIS:CSI03:3,2019-11-05T21:00:00Z,29.4412,-92.0613,10.0,0.0,-9999.0,0.5,'11111222,11111222,11111222' 
WAVCIS,ioos:station:WAVCIS:CSI03:3,2019-11-05T22:00:00Z,29.4412,-92.0613,10.0,0.0,-9999.0,0.5,'11111222,11111222,11111222' 
WAVCIS,ioos:station:WAVCIS:CSI03:3,2019-11-05T23:00:00Z,29.4412,-92.0613,10.0,0.0,-9999.0,0.5,'11111222,11111222,11111222' 
WAVCIS,ioos:station:WAVCIS:CSI03:3,2019-11-06T00:00:00Z,29.4412,-92.0613,10.0,1.0,-9999.0,1.5,'11111222,11111222,11111222' 
WAVCIS,ioos:station:WAVCIS:CSI03:3,2019-11-06T02:00:00Z,29.4412,-92.0613,10.0,2.6,-9999.0,3.1,'11111222,11111222,11111222' 
WAVCIS,ioos:station:WAVCIS:CSI03:3,2019-11-06T03:00:00Z,29.4412,-92.0613,10.0,4.1,-9999.0,4.1,'11111222,11111222,11111222' 
WAVCIS,ioos:station:WAVCIS:CSI03:3,2019-11-06T04:00:00Z,29.4412,-92.0613,10.0,4.6,-9999.0,5.1,'11111222,11111222,11111222' 
WAVCIS,ioos:station:WAVCIS:CSI03:3,2019-11-06T05:00:00Z,29.4412,-92.0613,10.0,4.1,-9999.0,4.1,'11111222,11111222,11111222' 
WAVCIS,ioos:station:WAVCIS:CSI03:3,2019-11-06T06:00:00Z,29.4412,-92.0613,10.0,4.6,-9999.0,5.1,'11111222,11111222,11111222' 
WAVCIS,ioos:station:WAVCIS:CSI03:3,2019-11-06T07:00:00Z,29.4412,-92.0613,10.0,4.6,-9999.0,5.7,'11111222,11111222,11111222' 
WAVCIS,ioos:station:WAVCIS:CSI03:3,2019-11-06T08:00:00Z,29.4412,-92.0613,10.0,5.1,-9999.0,5.7,'11111222,11111222,11111222' 
WAVCIS,ioos:station:WAVCIS:CSI03:3,2019-11-06T09:00:00Z,29.4412,-92.0613,10.0,7.2,-9999.0,7.7,'11111222,11111222,11111222' 
WAVCIS,ioos:station:WAVCIS:CSI03:3,2019-11-06T11:00:00Z,29.4412,-92.0613,10.0,5.7,-9999.0,6.7,'11111222,11111222,11111222' 
WAVCIS,ioos:station:WAVCIS:CSI03:3,2019-11-06T12:00:00Z,29.4412,-92.0613,10.0,5.1,-9999.0,6.2,'11111222,11111222,11111222' 
WAVCIS,ioos:station:WAVCIS:CSI03:3,2019-11-06T13:00:00Z,29.4412,-92.0613,10.0,6.2,-9999.0,6.7,'11111222,11111222,11111222' 
WAVCIS,ioos:station:WAVCIS:CSI03:3,2019-11-06T14:00:00Z,29.4412,-92.0613,10.0,7.2,-9999.0,7.7,'11111222,11111222,11111222' 
WAVCIS,ioos:station:WAVCIS:CSI03:3,2019-11-06T15:00:00Z,29.4412,-92.0613,10.0,6.7,-9999.0,7.2,'11111222,11111222,11111222' 
WAVCIS,ioos:station:WAVCIS:CSI03:3,2019-11-06T16:00:00Z,29.4412,-92.0613,10.0,5.1,-9999.0,6.2,'11111222,11111222,11111222' 
WAVCIS,ioos:station:WAVCIS:CSI03:3,2019-11-06T17:00:00Z,29.4412,-92.0613,10.0,4.1,-9999.0,4.6,'11111222,11111222,11111222' 
WAVCIS,ioos:station:WAVCIS:CSI03:3,2019-11-06T18:00:00Z,29.4412,-92.0613,10.0,3.6,-9999.0,4.1,'11111222,11111222,11111222' 
WAVCIS,ioos:station:WAVCIS:CSI03:3,2019-11-06T19:00:00Z,29.4412,-92.0613,10.0,2.6,-9999.0,3.6,'11111222,11111222,11111222' 
WAVCIS,ioos:station:WAVCIS:CSI03:3,2019-11-06T20:00:00Z,29.4412,-92.0613,10.0,3.1,-9999.0,3.6,'11111222,11111222,11111222' 
WAVCIS,ioos:station:WAVCIS:CSI03:3,2019-11-06T21:00:00Z,29.4412,-92.0613,10.0,1.5,-9999.0,2.6,'11111222,11111222,11111222' 
WAVCIS,ioos:station:WAVCIS:CSI03:3,2019-11-06T22:00:00Z,29.4412,-92.0613,10.0,1.5,-9999.0,2.6,'11111222,11111222,11111222' 
WAVCIS,ioos:station:WAVCIS:CSI03:3,2019-11-06T23:00:00Z,29.4412,-92.0613,10.0,1.5,-9999.0,1.5,'11111222,11111222,11111222' 
WAVCIS,ioos:station:WAVCIS:CSI03:3,2019-11-07T00:00:00Z,29.4412,-92.0613,10.0,2.6,-9999.0,2.6,'11111222,11111222,11111222' 
WAVCIS,ioos:station:WAVCIS:CSI03:3,2019-11-07T01:00:00Z,29.4412,-92.0613,10.0,3.6,-9999.0,4.1,'11111222,11111222,11111222' 
WAVCIS,ioos:station:WAVCIS:CSI03:3,2019-11-07T02:00:00Z,29.4412,-92.0613,10.0,3.6,-9999.0,4.1,'11111222,11111222,11111222' 
WAVCIS,ioos:station:WAVCIS:CSI03:3,2019-11-07T03:00:00Z,29.4412,-92.0613,10.0,4.1,-9999.0,4.1,'11111222,11111222,11111222' 
WAVCIS,ioos:station:WAVCIS:CSI03:3,2019-11-07T04:00:00Z,29.4412,-92.0613,10.0,5.1,-9999.0,5.1,'11111222,11111222,11111222' 
WAVCIS,ioos:station:WAVCIS:CSI03:3,2019-11-07T05:00:00Z,29.4412,-92.0613,10.0,4.1,-9999.0,4.6,'11111222,11111222,11111222' 
WAVCIS,ioos:station:WAVCIS:CSI03:3,2019-11-07T06:00:00Z,29.4412,-92.0613,10.0,4.6,-9999.0,5.7,'11111222,11111222,11111222' 
WAVCIS,ioos:station:WAVCIS:CSI03:3,2019-11-07T07:00:00Z,29.4412,-92.0613,10.0,3.1,-9999.0,3.6,'11111222,11111222,11111222' 
WAVCIS,ioos:station:WAVCIS:CSI03:3,2019-11-07T08:00:00Z,29.4412,-92.0613,10.0,2.6,-9999.0,2.6,'11111222,11111222,11111222' 
WAVCIS,ioos:station:WAVCIS:CSI03:3,2019-11-07T09:00:00Z,29.4412,-92.0613,10.0,2.6,-9999.0,2.6,'11111222,11111222,11111222' 
WAVCIS,ioos:station:WAVCIS:CSI03:3,2019-11-07T10:00:00Z,29.4412,-92.0613,10.0,2.1,-9999.0,2.6,'11111222,11111222,11111222' 
WAVCIS,ioos:station:WAVCIS:CSI03:3,2019-11-07T11:00:00Z,29.4412,-92.0613,10.0,2.6,-9999.0,2.6,'11111222,11111222,11111222' 
WAVCIS,ioos:station:WAVCIS:CSI03:3,2019-11-07T12:00:00Z,29.4412,-92.0613,10.0,2.1,-9999.0,2.1,'11111222,11111222,11111222' 
WAVCIS,ioos:station:WAVCIS:CSI03:3,2019-11-07T13:00:00Z,29.4412,-92.0613,10.0,2.1,-9999.0,2.1,'11111222,11111222,11111222' 
WAVCIS,ioos:station:WAVCIS:CSI03:3,2019-11-07T14:00:00Z,29.4412,-92.0613,10.0,2.6,-9999.0,2.6,'11111222,11111222,11111222' 
WAVCIS,ioos:station:WAVCIS:CSI03:3,2019-11-07T15:00:00Z,29.4412,-92.0613,10.0,2.6,-9999.0,2.6,'11111222,11111222,11111222' 
WAVCIS,ioos:station:WAVCIS:CSI03:3,2019-11-07T16:00:00Z,29.4412,-92.0613,10.0,1.5,-9999.0,2.1,'11111222,11111222,11111222' 
WAVCIS,ioos:station:WAVCIS:CSI03:3,2019-11-07T17:00:00Z,29.4412,-92.0613,10.0,0.5,-9999.0,1.0,'11111222,11111222,11111222' 
WAVCIS,ioos:station:WAVCIS:CSI03:3,2019-11-07T18:00:00Z,29.4412,-92.0613,10.0,1.5,-9999.0,2.1,'11111222,11111222,11111222' 
WAVCIS,ioos:station:WAVCIS:CSI03:3,2019-11-07T19:00:00Z,29.4412,-92.0613,10.0,0.0,-9999.0,1.0,'11111222,11111222,11111222' 
WAVCIS,ioos:station:WAVCIS:CSI03:3,2019-11-07T20:00:00Z,29.4412,-92.0613,10.0,0.0,-9999.0,0.5,'11111222,11111222,11111222' 
WAVCIS,ioos:station:WAVCIS:CSI03:3,2019-11-07T21:00:00Z,29.4412,-92.0613,10.0,0.0,-9999.0,1.0,'11111222,11111222,11111222' 
WAVCIS,ioos:station:WAVCIS:CSI03:3,2019-11-07T22:00:00Z,29.4412,-92.0613,10.0,0.0,-9999.0,0.5,'11111222,11111222,11111222' 
WAVCIS,ioos:station:WAVCIS:CSI03:3,2019-11-07T23:00:00Z,29.4412,-92.0613,10.0,0.5,-9999.0,1.0,'11111222,11111222,11111222' 
WAVCIS,ioos:station:WAVCIS:CSI03:3,2019-11-08T00:00:00Z,29.4412,-92.0613,10.0,2.6,-9999.0,3.6,'11111222,11111222,11111222' 
WAVCIS,ioos:station:WAVCIS:CSI03:3,2019-11-08T01:00:00Z,29.4412,-92.0613,10.0,1.5,-9999.0,2.6,'11111222,11111222,11111222' 
WAVCIS,ioos:station:WAVCIS:CSI03:3,2019-11-08T02:00:00Z,29.4412,-92.0613,10.0,4.1,-9999.0,4.6,'11111222,11111222,11111222' 
WAVCIS,ioos:station:WAVCIS:CSI03:3,2019-11-08T03:00:00Z,29.4412,-92.0613,10.0,3.1,-9999.0,4.6,'11111222,11111222,11111222' 
WAVCIS,ioos:station:WAVCIS:CSI03:3,2019-11-08T04:00:00Z,29.4412,-92.0613,10.0,3.1,-9999.0,4.6,'11111222,11111222,11111222' 
WAVCIS,ioos:station:WAVCIS:CSI03:3,2019-11-08T05:00:00Z,29.4412,-92.0613,10.0,2.1,-9999.0,2.6,'11111222,11111222,11111222' 
WAVCIS,ioos:station:WAVCIS:CSI03:3,2019-11-08T06:00:00Z,29.4412,-92.0613,10.0,1.5,-9999.0,2.6,'11111222,11111222,11111222' 
WAVCIS,ioos:station:WAVCIS:CSI03:3,2019-11-08T07:00:00Z,29.4412,-92.0613,10.0,2.6,-9999.0,4.6,'11111222,11111222,11111222' 
WAVCIS,ioos:station:WAVCIS:CSI03:3,2019-11-08T08:00:00Z,29.4412,-92.0613,10.0,7.2,-9999.0,9.3,'11111222,11111222,11111222' 
WAVCIS,ioos:station:WAVCIS:CSI03:3,2019-11-08T09:00:00Z,29.4412,-92.0613,10.0,6.7,-9999.0,10.8,'11111222,11111222,11111222' 
WAVCIS,ioos:station:WAVCIS:CSI03:3,2019-11-08T10:00:00Z,29.4412,-92.0613,10.0,5.1,-9999.0,9.3,'11111222,11111222,11111222' 
WAVCIS,ioos:station:WAVCIS:CSI03:3,2019-11-08T11:00:00Z,29.4412,-92.0613,10.0,5.1,-9999.0,9.3,'11111222,11111222,11111222' 
WAVCIS,ioos:station:WAVCIS:CSI03:3,2019-11-08T12:00:00Z,29.4412,-92.0613,10.0,9.8,-9999.0,12.4,'11111222,11111222,11111222' 
WAVCIS,ioos:station:WAVCIS:CSI03:3,2019-11-08T13:00:00Z,29.4412,-92.0613,10.0,7.2,-9999.0,10.3,'11111222,11111222,11111222' 
WAVCIS,ioos:station:WAVCIS:CSI03:3,2019-11-08T14:00:00Z,29.4412,-92.0613,10.0,8.8,-9999.0,10.3,'11111222,11111222,11111222' 
WAVCIS,ioos:station:WAVCIS:CSI03:3,2019-11-08T17:00:00Z,29.4412,-92.0613,10.0,5.1,-9999.0,9.3,'11111222,11111222,11111222' 
WAVCIS,ioos:station:WAVCIS:CSI03:3,2019-11-08T18:00:00Z,29.4412,-92.0613,10.0,4.6,-9999.0,10.3,'11111222,11111222,11111222' 
WAVCIS,ioos:station:WAVCIS:CSI03:3,2019-11-08T19:00:00Z,29.4412,-92.0613,10.0,7.2,-9999.0,10.3,'11111222,11111222,11111222' 
WAVCIS,ioos:station:WAVCIS:CSI03:3,2019-11-08T20:00:00Z,29.4412,-92.0613,10.0,7.2,-9999.0,9.8,'11111222,11111222,11111222' 
WAVCIS,ioos:station:WAVCIS:CSI03:3,2019-11-08T21:00:00Z,29.4412,-92.0613,10.0,6.7,-9999.0,10.8,'11111222,11111222,11111222' 
WAVCIS,ioos:station:WAVCIS:CSI03:3,2019-11-08T22:00:00Z,29.4412,-92.0613,10.0,5.7,-9999.0,9.8,'11111222,11111222,11111222' 
WAVCIS,ioos:station:WAVCIS:CSI03:3,2019-11-08T23:00:00Z,29.4412,-92.0613,10.0,8.2,-9999.0,9.8,'11111222,11111222,11111222' 
WAVCIS,ioos:station:WAVCIS:CSI03:3,2019-11-09T00:00:00Z,29.4412,-92.0613,10.0,6.7,-9999.0,9.3,'11111222,11111222,11111222' 
WAVCIS,ioos:station:WAVCIS:CSI03:3,2019-11-09T01:00:00Z,29.4412,-92.0613,10.0,6.7,-9999.0,9.8,'11111222,11111222,11111222' 
WAVCIS,ioos:station:WAVCIS:CSI03:3,2019-11-09T02:00:00Z,29.4412,-92.0613,10.0,8.2,-9999.0,10.3,'11111222,11111222,11111222' 
WAVCIS,ioos:station:WAVCIS:CSI03:3,2019-11-09T03:00:00Z,29.4412,-92.0613,10.0,9.8,-9999.0,12.9,'11111222,11111222,11111222' 
WAVCIS,ioos:station:WAVCIS:CSI03:3,2019-11-09T04:00:00Z,29.4412,-92.0613,10.0,9.3,-9999.0,12.4,'11111222,11111222,11111222' 
WAVCIS,ioos:station:WAVCIS:CSI03:3,2019-11-09T05:00:00Z,29.4412,-92.0613,10.0,8.8,-9999.0,11.3,'11111222,11111222,11111222' 
WAVCIS,ioos:station:WAVCIS:CSI03:3,2019-11-09T06:00:00Z,29.4412,-92.0613,10.0,9.3,-9999.0,11.8,'11111222,11111222,11111222' 
WAVCIS,ioos:station:WAVCIS:CSI03:3,2019-11-09T07:00:00Z,29.4412,-92.0613,10.0,8.8,-9999.0,11.3,'11111222,11111222,11111222' 
WAVCIS,ioos:station:WAVCIS:CSI03:3,2019-11-09T08:00:00Z,29.4412,-92.0613,10.0,7.2,-9999.0,9.3,'11111222,11111222,11111222' 
WAVCIS,ioos:station:WAVCIS:CSI03:3,2019-11-09T09:00:00Z,29.4412,-92.0613,10.0,7.7,-9999.0,10.3,'11111222,11111222,11111222' 
WAVCIS,ioos:station:WAVCIS:CSI03:3,2019-11-09T10:00:00Z,29.4412,-92.0613,10.0,7.2,-9999.0,9.8,'11111222,11111222,11111222' 
WAVCIS,ioos:station:WAVCIS:CSI03:3,2019-11-09T11:00:00Z,29.4412,-92.0613,10.0,7.2,-9999.0,8.2,'11111222,11111222,11111222' 
WAVCIS,ioos:station:WAVCIS:CSI03:3,2019-11-09T12:00:00Z,29.4412,-92.0613,10.0,7.2,-9999.0,8.8,'11111222,11111222,11111222' 
WAVCIS,ioos:station:WAVCIS:CSI03:3,2019-11-09T13:00:00Z,29.4412,-92.0613,10.0,6.2,-9999.0,7.7,'11111222,11111222,11111222' 
WAVCIS,ioos:station:WAVCIS:CSI03:3,2019-11-09T14:00:00Z,29.4412,-92.0613,10.0,5.7,-9999.0,7.7,'11111222,11111222,11111222' 
WAVCIS,ioos:station:WAVCIS:CSI03:3,2019-11-09T15:00:00Z,29.4412,-92.0613,10.0,5.7,-9999.0,7.2,'11111222,11111222,11111222' 